KQ4KX Weather Reports


time (UTC)temp
C
wind
direction
speed
KPH
gust
KPH
rain 1hr
cm
rain 24hr
cm
rain mn
cm
humidity
%
barometer
mb
20260505140402 25 98 16.1 24.1 0.00 0.00 0.00 75 1016.1
20260505130203 23 98 14.5 22.5 0.00 0.00 0.00 81 1016.2
20260505124103 22 96 11.3 17.7 0.00 0.00 0.00 85 1016.3
20260505123533 22 102 11.3 17.7 0.00 0.00 0.00 86 1016.3
20260505123033 22 99 9.7 17.7 0.00 0.00 0.00 86 1016.3
20260505121432 21 99 9.7 14.5 0.00 0.00 0.00 88 1016.3
20260505120933 21 96 9.7 14.5 0.00 0.00 0.00 89 1016.3
20260505120433 21 94 8.0 14.5 0.00 0.00 0.00 89 1016.2
20260505114903 20 87 4.8 11.3 0.00 0.00 0.00 91 1016.0
20260505114403 20 88 4.8 9.7 0.00 0.00 0.00 91 1016.0
20260505113332 20 89 6.4 14.5 0.00 0.00 0.00 92 1015.7
20260505112304 20 91 6.4 14.5 0.00 0.00 0.00 93 1015.5
20260505110703 19 91 4.8 11.3 0.00 0.00 0.00 94 1015.3
20260505110202 19 88 3.2 9.7 0.00 0.00 0.00 94 1015.4
20260505101633 19 88 3.2 9.7 0.00 0.00 0.00 94 1015.0
20260505101134 19 91 3.2 9.7 0.00 0.00 0.00 93 1015.1
20260505095104 19 90 4.8 12.9 0.00 0.00 0.00 93 1014.7
20260505093032 19 91 8.0 12.9 0.00 0.00 0.00 93 1014.6
20260505091433 19 95 8.0 14.5 0.00 0.00 0.00 92 1014.7
20260505090903 19 96 8.0 12.9 0.00 0.00 0.00 92 1014.7
20260505090402 19 92 8.0 12.9 0.00 0.00 0.00 92 1014.5
20260505085903 19 91 6.4 12.9 0.00 0.00 0.00 92 1014.5
20260505085403 20 88 4.8 11.3 0.00 0.00 0.00 92 1014.6
20260505084832 20 88 4.8 11.3 0.00 0.00 0.00 92 1014.6
20260505083832 20 86 4.8 12.9 0.00 0.00 0.00 92 1014.7
20260505082834 20 83 6.4 16.1 0.00 0.00 0.00 91 1014.5
20260505081304 20 80 4.8 11.3 0.00 0.00 0.00 92 1014.5
20260505080233 20 83 3.2 11.3 0.00 0.00 0.00 92 1014.6
20260505075732 20 88 3.2 11.3 0.00 0.00 0.00 91 1014.5
20260505075202 20 88 3.2 11.3 0.00 0.00 0.00 91 1014.7
20260505074633 20 92 4.8 9.7 0.00 0.00 0.00 92 1014.7
20260505074134 20 95 6.4 11.3 0.00 0.00 0.00 91 1014.6
20260505073104 20 90 6.4 12.9 0.00 0.00 0.00 91 1014.7
20260505072533 20 92 6.4 12.9 0.00 0.00 0.00 90 1014.7
20260505072032 20 91 4.8 12.9 0.00 0.00 0.00 90 1014.7
20260505071532 20 87 4.8 11.3 0.00 0.00 0.00 90 1014.6
20260505071002 20 88 6.4 11.3 0.00 0.00 0.00 90 1014.7
20260505070502 20 90 6.4 12.9 0.00 0.00 0.00 89 1014.7
20260505070002 20 87 6.4 12.9 0.00 0.00 0.00 89 1014.7
20260505065502 20 86 6.4 12.9 0.00 0.00 0.00 89 1014.8
20260505064933 20 85 4.8 12.9 0.00 0.00 0.00 89 1014.7
20260505064403 20 81 4.8 11.3 0.00 0.00 0.00 89 1015.0
20260505062332 20 90 8.0 14.5 0.00 0.00 0.00 88 1015.2
20260505061832 20 91 8.0 14.5 0.00 0.00 0.00 87 1015.2
20260505061302 20 90 8.0 14.5 0.00 0.00 0.00 87 1015.3
20260505060232 20 95 9.7 14.5 0.00 0.00 0.00 88 1015.3
20260505055702 20 95 9.7 14.5 0.00 0.00 0.00 88 1015.4
20260505055202 20 94 8.0 14.5 0.00 0.00 0.00 87 1015.6
20260505054633 20 93 6.4 12.9 0.00 0.00 0.00 87 1015.7
20260505054104 20 89 6.4 12.9 0.00 0.00 0.00 87 1015.8
20260505053104 20 93 8.0 14.5 0.00 0.00 0.00 87 1015.8
20260505052532 20 89 6.4 12.9 0.00 0.00 0.00 87 1016.0
20260505052032 20 84 4.8 11.3 0.00 0.00 0.00 86 1016.0
20260505051532 20 89 4.8 12.9 0.00 0.00 0.00 87 1016.2
20260505051002 20 91 6.4 12.9 0.00 0.00 0.00 86 1016.0
20260505050502 21 86 6.4 12.9 0.00 0.00 0.00 86 1016.2
20260505041732 21 88 8.0 16.1 0.00 0.00 0.00 84 1016.4
20260505041202 21 90 9.7 16.1 0.00 0.00 0.00 83 1016.5
20260505040702 21 91 9.7 16.1 0.00 0.00 0.00 84 1016.5
20260505040203 21 90 9.7 17.7 0.00 0.00 0.00 84 1016.3
20260505035702 21 88 9.7 17.7 0.00 0.00 0.00 84 1016.3
20260505034602 21 92 11.3 19.3 0.00 0.00 0.00 84 1016.5
20260505034104 21 92 12.9 20.9 0.00 0.00 0.00 84 1016.5
20260505033602 21 97 12.9 20.9 0.00 0.00 0.00 84 1016.4
20260505033104 21 99 12.9 17.7 0.00 0.00 0.00 83 1016.4
20260505032032 21 99 12.9 20.9 0.00 0.00 0.00 83 1016.4
20260505031502 21 99 14.5 22.5 0.00 0.00 0.00 82 1016.4
20260505031002 21 99 16.1 22.5 0.00 0.00 0.00 82 1016.6
20260505030502 21 102 14.5 22.5 0.00 0.00 0.00 82 1016.5
20260505024903 21 96 12.9 22.5 0.00 0.00 0.00 82 1016.3
20260505023302 21 100 14.5 24.1 0.00 0.00 0.00 81 1016.2
20260505022232 22 97 14.5 20.9 0.00 0.00 0.00 81 1016.2
20260505021732 22 98 14.5 20.9 0.00 0.00 0.00 80 1016.2
20260505021232 22 99 14.5 20.9 0.00 0.00 0.00 81 1016.0
20260505020702 22 100 14.5 22.5 0.00 0.00 0.00 80 1016.1
20260505020132 22 98 14.5 22.5 0.00 0.00 0.00 79 1016.0
20260505015602 22 96 14.5 25.7 0.00 0.00 0.00 79 1016.0
20260505014532 22 96 12.9 22.5 0.00 0.00 0.00 78 1015.9
20260505014002 22 98 14.5 22.5 0.00 0.00 0.00 78 1016.0
20260505013502 22 98 16.1 24.1 0.00 0.00 0.00 78 1016.0
20260505012933 22 96 16.1 24.1 0.00 0.00 0.00 77 1015.8
20260505010902 22 100 17.7 27.4 0.00 0.00 0.00 77 1015.6
20260505010332 22 101 17.7 25.7 0.00 0.00 0.00 77 1015.4
20260505005332 22 95 14.5 22.5 0.00 0.00 0.00 76 1015.5
20260505004803 22 94 14.5 20.9 0.00 0.00 0.00 76 1015.6
20260505004302 23 98 14.5 22.5 0.00 0.00 0.00 75 1015.5
20260505003302 23 104 19.3 29.0 0.00 0.00 0.00 74 1015.5
20260505002732 23 100 19.3 30.6 0.00 0.00 0.00 74 1015.4
20260505002232 23 100 19.3 30.6 0.00 0.00 0.00 74 1015.2
20260505001702 23 102 19.3 29.0 0.00 0.00 0.00 73 1015.2
20260505000632 23 96 16.1 29.0 0.00 0.00 0.00 73 1014.9
20260505000104 23 93 16.1 29.0 0.00 0.00 0.00 72 1014.9
20260504235532 23 96 17.7 29.0 0.00 0.00 0.00 72 1014.9
20260504235032 23 100 19.3 25.7 0.00 0.00 0.00 72 1014.9
20260504234532 24 100 17.7 27.4 0.00 0.00 0.00 71 1014.9
20260504234033 24 96 19.3 30.6 0.00 0.00 0.00 72 1014.6
20260504233503 24 94 20.9 30.6 0.00 0.00 0.00 72 1014.7
20260504233002 24 99 20.9 30.6 0.00 0.00 0.00 71 1014.6
20260504232433 24 95 20.9 29.0 0.00 0.00 0.00 71 1014.7
20260504231902 24 94 19.3 32.2 0.00 0.00 0.00 71 1014.7
20260504231402 24 94 17.7 32.2 0.00 0.00 0.00 70 1014.7
20260504225832 25 100 20.9 33.8 0.00 0.00 0.00 70 1014.6
20260504224732 25 103 22.5 33.8 0.00 0.00 0.00 69 1014.6
20260504224232 25 97 19.3 33.8 0.00 0.00 0.00 69 1014.6
20260504223702 25 87 16.1 32.2 0.00 0.00 0.00 68 1014.7
20260504223202 25 86 14.5 27.4 0.00 0.00 0.00 69 1014.5
20260504222703 25 91 16.1 27.4 0.00 0.00 0.00 68 1014.5
20260504221603 25 97 19.3 29.0 0.00 0.00 0.00 69 1014.6
20260504220603 25 90 14.5 29.0 0.00 0.00 0.00 67 1014.5
20260504215032 26 93 20.9 33.8 0.00 0.00 0.00 66 1014.5
20260504214503 26 99 22.5 33.8 0.00 0.00 0.00 66 1014.5
20260504214002 26 99 20.9 32.2 0.00 0.00 0.00 66 1014.5
20260504213502 26 95 19.3 32.2 0.00 0.00 0.00 66 1014.5
20260504211933 26 97 22.5 35.4 0.00 0.00 0.00 65 1014.4
20260504205433 27 98 20.9 30.6 0.00 0.00 0.00 62 1014.6
20260504204402 27 96 22.5 37.0 0.00 0.00 0.00 62 1014.6
20260504203902 27 97 19.3 32.2 0.00 0.00 0.00 63 1014.6
20260504203401 27 93 19.3 32.2 0.00 0.00 0.00 61 1014.7
20260504202902 27 97 20.9 32.2 0.00 0.00 0.00 59 1014.7
20260504202402 28 99 19.3 32.2 0.00 0.00 0.00 60 1014.7
20260504201831 27 95 19.3 32.2 0.00 0.00 0.00 61 1014.7
20260504200831 27 98 20.9 33.8 0.00 0.00 0.00 60 1014.7
20260504200332 28 99 20.9 33.8 0.00 0.00 0.00 60 1014.8
20260504194332 28 94 17.7 30.6 0.00 0.00 0.00 59 1015.2
20260504193831 27 97 17.7 25.7 0.00 0.00 0.00 61 1015.0
20260504193331 28 104 16.1 25.7 0.00 0.00 0.00 59 1015.2
20260504192831 27 104 14.5 25.7 0.00 0.00 0.00 60 1015.0
20260504192331 27 102 14.5 22.5 0.00 0.00 0.00 61 1015.2
20260504191831 27 97 16.1 32.2 0.00 0.00 0.00 61 1015.3
20260504190803 27 91 11.3 25.7 0.00 0.00 0.00 60 1015.4
20260504190301 27 91 9.7 22.5 0.00 0.00 0.00 59 1015.3
20260504185731 27 97 11.3 24.1 0.00 0.00 0.00 59 1015.5
20260504185231 27 91 8.0 24.1 0.00 0.00 0.00 61 1015.6
20260504184731 27 83 8.0 27.4 0.00 0.00 0.00 64 1015.6
20260504184231 27 84 14.5 27.4 0.00 0.00 0.00 60 1015.8
20260504183701 28 91 14.5 27.4 0.00 0.00 0.00 57 1015.9
20260504183201 28 99 12.9 24.1 0.00 0.00 0.00 57 1016.0
20260504182701 28 94 11.3 24.1 0.00 0.00 0.00 56 1016.0
20260504182201 27 94 9.7 20.9 0.00 0.00 0.00 56 1016.1
20260504181701 27 96 11.3 24.1 0.00 0.00 0.00 59 1016.1
20260504181201 27 83 9.7 24.1 0.00 0.00 0.00 60 1016.2
20260504180701 27 87 12.9 27.4 0.00 0.00 0.00 57 1016.1
20260504180201 27 92 14.5 27.4 0.00 0.00 0.00 57 1016.3
20260504175701 27 93 11.3 24.1 0.00 0.00 0.00 59 1016.4
20260504175201 27 94 9.7 22.5 0.00 0.00 0.00 54 1016.5
20260504174701 27 93 9.7 22.5 0.00 0.00 0.00 57 1016.4
20260504174201 27 93 12.9 25.7 0.00 0.00 0.00 55 1016.4
20260504173701 27 91 14.5 25.7 0.00 0.00 0.00 55 1016.4
20260504173201 27 80 9.7 24.1 0.00 0.00 0.00 55 1016.6
20260504172701 27 70 6.4 16.1 0.00 0.00 0.00 54 1016.6
20260504172201 27 74 8.0 25.7 0.00 0.00 0.00 53 1016.7
20260504171701 27 84 11.3 25.7 0.00 0.00 0.00 53 1016.7
20260504171201 27 96 16.1 29.0 0.00 0.00 0.00 53 1016.7
20260504170631 27 100 14.5 29.0 0.00 0.00 0.00 56 1016.7
20260504170131 27 97 11.3 22.5 0.00 0.00 0.00 54 1017.0
20260504150601 25 69 9.7 22.5 0.00 0.00 0.00 62 1017.7